Regional Weather Roundup
Issued by NWS Upton, NY

Home | Current Version | Previous Version | Text Only | Print | Product List | Glossary On
Versions: 1 2 3 4 5 6 7 8 9 10 11 12 13 14 15 16 17 18 19 20 21 22 23 24 25 26 27 28 29 30 31 32 33 34 35 36 37 38 39 40 41 42 43 44 45 46 47 48 49 50
000
ASUS41 KOKX 012204
RWROKX

REGIONAL WEATHER ROUNDUP
NATIONAL WEATHER SERVICE NEW YORK NY
600 PM EDT SAT AUG 01 2015

NOTE: "FAIR" INDICATES FEW OR NO CLOUDS BELOW 12,000 FEET WITH NO
SIGNIFICANT WEATHER AND/OR OBSTRUCTIONS TO VISIBILITY.

NYZ071-072-176-178-NJZ106-104-012300-
NEW YORK CITY METRO AREA


CITY           SKY/WX    TMP DP  RH WIND       PRES   REMARKS
CENTRAL PARK   PTSUNNY   86  56  35 VRB6      29.80S
LAGUARDIA APRT PTSUNNY   87  55  33 NW16      29.77R
KENNEDY INTL   MOSUNNY   89  55  31 W16       29.77S
NEWARK/LIBERTY MOSUNNY   89  55  31 W15G22    29.77R
BRNX BOT. GARD   N/A     84  55  37 W6        29.78F
TETERBORO      MOSUNNY   85  54  34 W13G18    29.76R
$$

NYZ177-179-078>081-012300-
LONG ISLAND NEW YORK

CITY           SKY/WX    TMP DP  RH WIND       PRES   REMARKS
FARMINGDALE    MOSUNNY   87  54  32 W13       29.77R
ISLIP          PTSUNNY   84  62  47 SW15G22   29.75R
SHIRLEY        MOSUNNY   82  70  66 S8        29.77S
WESTHAMPTON    SUNNY     83  68  60 W15       29.78S
MONTAUK POINT    N/A     82  68  62 SW9G18    29.77S
$$

NYZ052-065-067-012300-
HUDSON VALLEY

CITY           SKY/WX    TMP DP  RH WIND       PRES   REMARKS
WHITE PLAINS   MOSUNNY   82  58  43 NW10      29.79R
NEWBURGH       PTSUNNY   84  57  39 W14       29.80R
MONTGOMERY     MOSUNNY   83  56  39 SW8       29.79R
POUGHKEEPSIE   SUNNY     87  52  29 W12       29.76R
ALBANY         MOSUNNY   82  54  37 W16G26    29.76S
$$

NJZ001-105-106-008-010-013-015-019>022-104-012300-
NEW JERSEY

CITY           SKY/WX    TMP DP  RH WIND       PRES   REMARKS
NEWARK/LIBERTY MOSUNNY   89  55  31 W15G22    29.77R
TETERBORO      MOSUNNY   85  54  34 W13G18    29.76R
CALDWELL       SUNNY     86  56  35 NW14      29.79R
MORRISTOWN     PTSUNNY   86  59  39 NW9G17    29.80R
SOMERVILLE     SUNNY     85  58  39 NW8       29.78R
SUSSEX         MOSUNNY   82  56  40 VRB5      29.81R
ANDOVER          N/A     82  59  45 VRB5      29.82S
TRENTON        SUNNY     88  51  28 W10G18    29.80R
MILLVILLE      SUNNY     88  58  36 W10       29.82F
ATLANTIC CITY  SUNNY     88  58  36 W10       29.81S
WRIGHTSTOWN    NOT AVBL
TOMS RIVER       N/A     88  57  35 W13       29.80S
BELMAR         SUNNY     88  59  37 W8        29.80S
$$

PAZ047>061-062-071-012300-
EASTERN PENNSYLVANIA

CITY           SKY/WX    TMP DP  RH WIND       PRES   REMARKS
PHILADELPHIA   MOSUNNY   88  57  34 W16       29.82S
ALLENTOWN      MOSUNNY   83  58  42 W10G18    29.82S
SCRANTON       PTSUNNY   80  55  42 W7        29.84S
$$

CTZ002-004>006-009-010-012-RIZ004-006-007-MAZ004-011-015-012300-
SOUTHERN NEW ENGLAND
 IN CT

CITY           SKY/WX    TMP DP  RH WIND       PRES   REMARKS
BRADLEY INTL   MOSUNNY   83  61  47 W3        29.75R
HARTFORD       MOSUNNY   85  57  38 NW9       29.75R
DANBURY        PTSUNNY   79  60  52 W6        29.80R
WTRBRY/OXFORD  MOSUNNY   81  63  54 NW7       29.81S
BRIDGEPORT     MOSUNNY   88  59  37 NW14      29.76R
MERIDEN        MOSUNNY   82  64  54 CALM      29.76S
NEW HAVEN      MOSUNNY   83  60  45 W7        29.76S
CHESTER        FAIR      79  63  57 NW3       29.78R
GROTON         PTSUNNY   85  56  37 W12       29.74R
WILLIMANTIC    PTSUNNY   83  58  42 NW7       29.76R

 IN RI

CITY           SKY/WX    TMP DP  RH WIND       PRES   REMARKS
PROVIDENCE     LGT RAIN  82  59  45 W12       29.76R
BLOCK ISLAND     N/A     77  68  73 SW16G23   29.77S
WESTERLY       MOSUNNY   81  64  56 SW8       29.75S

 IN MA

CITY           SKY/WX    TMP DP  RH WIND       PRES   REMARKS
BOSTON         PTSUNNY   80  58  46 W12       29.72F
WORCESTER      MOSUNNY   75  61  61 W7        29.78S
WESTFIELD      SUNNY     83  60  45 W7        29.75S
PROVINCETOWN   PTSUNNY   75  63  64 NW10      29.73R THUNDER
NANTUCKET      SUNNY     77  70  79 SW15      29.76S
$$

ANZ330-335-338-340-345-350-353-355-012300-
COASTAL MARINE OBSERVATIONS


STATION/POSITION TIME  SKY/WX   TEMP    WIND        PRES    VSBY  WAVE
                                AIR SEA DIR/SP/G                  HT/PER
                 (UTC)          (F)     (DEG/KT/KT) (MB)    (MI)  (FT/S)
NY HARB ENTRANCE 2050            82 77  260/ 12/ 14 1008.0          3/ 9
4S FIRE IS       NOT AVBL
20S FIRE ISLAND  2050            78 76  220/ 12/ 14 1008.3          5/10
GREAT SOUTH BAY  2130            80 81  230/ 14/ 17   N/A
23SW MTP         2150            77 74  220/ 16/ 17 1007.5          5/ 9
HUDSON CANYON    NOT AVBL
KINGS POINT      2100            85 72  290/ 13/ 16 1007.1
EXECUTION ROCKS  2100            82     250/  6/  8   N/A
CENTRAL LI SOUND NOT AVBL
EASTERN LI SOUND 2100            75 69  250/ 12/ 14   N/A
ROBBINS REEF     2100            86     260/ 17/ 20 1006.8
$$


>>>>>>>>>>>>>>>>>>>>>>>>>>>> KEY <<<<<<<<<<<<<<<<<<<<<<<<<<<
>                                                          <
>     SKY/WX - SKY CONDITION/PRESENT WEATHER               <
>     TMP    - TEMPERATURE IN FAHRENHEIT                   <
>     DP     - DEWPOINT IN FAHRENHEIT                      <
>     RH     - RELATIVE HUMIDITY IN PERCENT                <
>     WIND   - DIRECTION AND SPEED IN MPH                  <
>     PRES   - MEAN SEA LEVEL PRESSURE IN INCHES OF HG     <
>     WCI    - WIND CHILL INDEX                            <
>     VSB    - VISIBILITY IN MILES                         <
>     HX     - HEAT INDEX                                  <
>     TC     - TEMPERATURE IN CELSIUS                      <
>     VRB    - VARIABLE WIND DIRECTION                     <
>                                                          <
>>>>>>>>>>>>>>>>>>>>>>>>>>>> KEY <<<<<<<<<<<<<<<<<<<<<<<<<<<





USA.gov is the U.S. government's official web portal to all federal, state and local government web resources and services.